Regional Weather Roundup
Issued by NWS Green Bay, WI

Home | Current Version | Previous Version | Text Only | Print | Product List | Glossary On
Versions: 1 2 3 4 5 6 7 8 9 10 11 12 13 14 15 16 17 18 19 20 21 22 23 24 25 26 27 28 29 30 31 32 33 34 35 36 37 38 39 40 41 42 43 44 45 46 47 48 49 50
000
ASUS43 KGRB 051900
RWRGRB

NORTH-CENTRAL AND NORTHEAST WISCONSIN REGIONAL WEATHER ROUNDUP
NATIONAL WEATHER SERVICE GREEN BAY WI
200 PM CDT SUN JUL 05 2015

WIZ005-009-010>012-018-019-052000-
NORTH CENTRAL WISCONSIN

CITY           SKY/WX    TMP DP  RH WIND       PRES   REMARKS
IRONWOOD       PTSUNNY   79  63  57 S8        29.89S
MANITOWISH WTR NOT AVBL
ARBOR VITAE    NOT AVBL
EAGLE RIVER    NOT AVBL
LAND O LAKES   NOT AVBL
RHINELANDER    SUNNY     80  57  45 SW10      29.99F
PHILLIPS       NOT AVBL
ANTIGO         NOT AVBL
TOMAHAWK       NOT AVBL
MERRILL        NOT AVBL
$$

WIZ013-073-052000-
NORTHEAST WISCONSIN

CITY           SKY/WX    TMP DP  RH WIND       PRES   REMARKS
IRON MOUNTAIN  PTSUNNY   82  62  50 S14G21    29.98F
MARINETTE      SUNNY     81  63  54 S15G22    30.00F
$$

WIZ017-030-035>037-045-052000-
CENTRAL WISCONSIN

CITY           SKY/WX    TMP DP  RH WIND       PRES   REMARKS
MEDFORD        NOT AVBL
WAUSAU         SUNNY     81  59  47 S14       29.99F
MOSINEE        NOT AVBL
MARSHFIELD     MOSUNNY   81  61  50 S9G20     29.99F
WISC RAPIDS    SUNNY     82  59  45 SW14      30.02F
STEVENS POINT  NOT AVBL
WAUPACA        NOT AVBL
SHAWANO        NOT AVBL
CLINTONVILLE   MOSUNNY   81  59  47 S10G18    30.01F
$$

WIZ038-039-048-051-052000-
FOX VALLEY

CITY           SKY/WX    TMP DP  RH WIND       PRES   REMARKS
NWS GREEN BAY  SUNNY     81  62  52 S13       30.02F
APPLETON       MOSUNNY   79  59  50 SW14      30.03F
OSHKOSH        SUNNY     81  61  50 S9        30.02F
FOND DU LAC    SUNNY     80  62  54 SW8       30.03F
$$

WIZ022-050-052-052000-
EAST CENTRAL WISCONSIN

CITY           SKY/WX    TMP DP  RH WIND       PRES   REMARKS
STURGEON BAY   SUNNY     77  64  65 S16       30.05F
MANITOWOC      NOT AVBL
SHEBOYGAN      SUNNY     77  63  61 SE12      30.04F
$$

LMZ563-521-522-541>543-052000-
LAKESHORE

STATION/POSITION TIME  TEMP    WIND        PRES    VSBY  WAVE
                       AIR SEA DIR/SP/G                  HT/PER
                 (UTC) (F)     (DEG/KT/KT) (MB)    (MI)  (FT/S)
SHEBOYGAN LKSHOR 1800   63     160/ 13/ 13 1018.1F
KEWAUNEE LKSHORE 1800   63     190/  8/ 11 1016.8F
ALGOMA MARINA    1811          210/ 10/ 12   N/A
NORTHPORT PIER   1800   69     140/  6/  9 1016.9R
N MID LAKE BUOY  1750   54 49  200/ 12/ 12 1017.3S         2/ 4
S GREEN BAY BUOY 1800   74 70  220/ 10/ 12 1018.2F
STURGEON BAY CG  1815   63     180/  9     1018.8   3 1/2  1
CHAMBERS ISLAND  1800   77     200/  5/ 10 1016.6S
MENOMINEE LKSHOR 1800   78     200/ 10/ 16 1017.2S
$$


USA.gov is the U.S. government's official web portal to all federal, state and local government web resources and services.